Location: Valencia
(39.4696°N, 0.3770°W)
Time: 10:39:35
(UTC+01:00)

ISS - Visible Passes

Search period start: 20 December 2014 00:00
Search period end: 30 December 2014 00:00
Orbit: 404 x 415 km, 51.6° (Epoch: 19 December)

Date Brightness Start Highest point End Pass type
(mag) Time Alt. Az. Time Alt. Az. Time Alt. Az.
20 Dec -0.9 18:33:32 10° N 18:34:18 11° N 18:35:04 10° NNE visible
21 Dec -1.1 19:18:31 10° NNW 19:19:40 15° N 19:19:40 15° N visible
22 Dec -1.2 18:27:59 10° NNW 18:29:45 14° NNE 18:31:08 11° NE visible
22 Dec -0.3 20:03:43 10° NW 20:03:54 11° NW 20:03:54 11° NW visible
23 Dec -2.2 19:13:00 10° NW 19:15:27 29° N 19:15:27 29° N visible
24 Dec -1.8 18:22:18 10° NNW 18:24:53 21° NNE 18:27:09 12° ENE visible
24 Dec -1.1 19:58:27 10° WNW 19:59:56 24° WNW 19:59:56 24° WNW visible
25 Dec -3.5 19:07:27 10° NW 19:10:44 71° NE 19:11:50 37° ESE visible
26 Dec -2.8 18:16:32 10° NW 18:19:39 39° NNE 18:22:45 10° ESE visible
26 Dec -1.0 19:53:29 10° W 19:56:02 21° SW 19:56:54 19° SSW visible
27 Dec -2.0 19:01:59 10° WNW 19:05:06 41° SW 19:08:11 10° SSE visible
29 Dec -0.1 18:57:02 10° W 18:59:06 16° SW 19:01:08 10° S visible
